SCP
0 0 0 0 0 0 0 0 0 0 0 0 0 0 0 0 0 0 0 0 0 0 0 0 0 0 0 0 0 0 0 0 0 0 0 0 0 0
0 0 0 0 0 0 0 0 0 0 0 0 0 0 0 0 0 0 0 0 0 0 0 0 0 0 0 0 0 0 0 0 0 0 0 0 0 0
0 0 0 0 0 0 0 0 0 0 0 0 0 0 0 0 0 0 0 0 0 0 0 0 0 0 0 0 0 0 0 0 0 0 0 0 0 0
0 0 0 0 0 0 0 0 0 0 0 0 0 0 0 0 0 0 0 0 0 0 0 0 0 0 0 0 0 0 0 0 0 0 0 0 0 0
0 0 0 0 0 0 0 0 0 0 0 0 0 0 0 0 0 0 0 0 0 0 0 0 0 0 0 0 0 0 0 0 0 0 0 0 0 0
0 0 0 0 0 0 0 0 0 0 0 0 0 0 0 0 0 0 0 0 0 0 0 0 0 0 0 0 0 0 0 0 0 0 0 0 0 0
0 0 0 0 0 0 0 0 0 0 0 0 0 0 0 0 0 0 0 0 0 0 0 0 0 0 0 0 0 0 0 0 0 0 0 0 0 0
0 0 0 0 0 0 0 0 0 0 0 0 0 0 0 0 0 0 0 0 0 0 0 0 0 0 0 0 0 0 0 0 0 0 0 0 0 0
0 0 0 0 0 0 0 0 0 0 0 0 0 0 0 0 0 0 0 0 0 0 0 0 0 0 0 0 0 0 0 0 0 0 0 0 0 0
0 0 0 0 0 0 0 0 0 0 0 0 0 0 0 0 0 0 0 0 0 0 0 0 0 0 0 0 0 0 0 0 0 0 0 0 0 0
0 0 0 0 0 0 0 0 0 0 0 0 0 0 0 0 0 0 0 0 0 0 0 0 0 0 0 0 0 0 0 0 0 0 0 0 0 0
0 0 0 0 0 0 0 0 0 0 0 0 0 0 0 0 0 0 0 0 0 0 0 0 0 0 0 0 0 0 0 0 0 0 0 0 0 0
0 0 0 0 0 0 0 0 0 0 0 0 0 0 0 0 0 0 0 0 0 0 0 0 0 0 0 0 0 0 0 0 0 0 0 0 0 0
0 0 0 0 0 0 0 0 0 0 0 0 0 0 0 0 0 0 0 0 0 0 0 0 0 0 0 0 0 0 0 0 0 0 0 0 0 0
0 0 0 0 0 0 0 0 0 0 0 0 0 0 0 0 0 0 0 0 0 0 0 0 0 0 0 0 0 0 0 0 0 0 0 0 0 0
0 0 0 0 0 0 0 0 0 0 0 0 0 0 0 0 0 0 0 0 0 0 0 0 0 0 0 0 0 0 0 0 0 0 0 0 0 0
0 0 0 0 0 0 0 0 0 0 0 0 0 0 0 0 0 0 0 0 0 0 0 0 0 0 0 0 0 0 0 0 0 0 0 0 0 0
0 0 0 0 0 0 0 0 0 0 0 0 0 0 0 0 0 0 0 0 0 0 0 0 0 0 0 0 0 0 0 0 0 0 0 0 0 0
0 0 0 0 0 0 0 0 0 0 0 0 0 0 0 0 0 0 0 0 0 0 0 0 0 0 0 0 0 0 0 0 0 0 0 0 0 0
0 0 0 0 0 0 0 0 0 0 0 0 0 0 0 0 0 0 0 0 0 0 0 0 0 0 0 0 0 0 0 0 0 0 0 0 0 0
0 0 0 0 0 0 0 0 0 0 0 0 0 0 0 0 0 0 0 0 0 0 0 0 0 0 0 0 0 0 0 0 0 0 0 0 0 0
0 0 0 0 0 0 0 0 0 0 0 0 0 0 0 0 0 0 0 0 0 0 0 0 0 0 0 0 0 0 0 0 0 0 0 0 0 0
0 0 0 0 0 0 0 0 0 0 0 0 0 0 0 0 0 0 0 0 0 0 0 0 0 0 0 0 0 0 0 0 0 0 0 0 0 0
Wind_Speed
3 3 2 2 2 2 3 3 5 10 10 6 4 4 5 7 11 10 11 16 21 21 21 21 21 21 22 22 22 22 22 23 22 21 20 19 18 18
2 3 3 3 4 3 3 3 4 7 9 5 6 9 11 10 15 13 13 21 21 21 21 21 21 22 23 24 24 24 24 25 25 24 22 20 19 18
4 4 5 5 4 4 4 5 5 5 10 11 8 8 11 13 13 13 13 12 12 19 20 20 20 20 21 22 24 25 25 25 25 25 23 22 20 18
5 5 7 6 7 6 5 7 7 7 8 13 11 9 11 12 13 13 12 11 11 16 20 21 20 19 17 15 16 17 18 19 21 22 22 22 21 18
6 7 8 8 8 7 8 8 7 8 8 11 13 10 10 10 11 12 13 11 12 13 16 17 18 19 17 15 13 12 11 12 13 14 15 16 16 15
6 7 7 8 9 10 8 9 9 9 10 10 11 10 10 11 10 10 10 8 9 10 13 14 17 19 18 15 13 11 8 7 7 8 8 9 10 11
8 8 8 12 13 10 10 9 10 9 9 9 10 10 10 10 9 7 9 8 9 9 9 9 8 8 9 12 13 13 11 9 9 9 9 10 10 11
9 9 10 10 12 15 17 18 17 14 12 10 10 11 12 11 9 8 8 8 7 5 5 7 6 7 8 7 11 14 12 11 11 11 11 12 13 13
8 9 8 9 13 10 14 18 17 19 19 13 12 12 13 11 10 9 8 8 8 6 5 7 7 9 8 8 13 14 13 12 12 11 12 13 14 14
9 9 9 10 10 12 13 13 13 12 14 11 10 11 11 10 9 8 9 8 7 7 6 5 5 5 5 5 9 11 12 12 12 12 12 12 13 14
10 9 10 10 12 16 13 12 12 11 12 13 13 12 13 12 8 5 5 5 5 5 3 3 3 2 2 2 3 6 7 8 8 8 7 8 11 12
9 9 11 12 15 17 12 11 11 10 10 10 9 9 8 8 7 5 5 5 5 4 2 3 3 2 2 1 2 1 2 4 6 7 8 8 8 6
7 8 8 14 17 17 13 9 11 13 9 8 7 6 6 5 5 5 5 4 5 4 3 3 2 2 2 2 2 2 2 3 3 5 8 10 11 10
7 7 9 15 16 15 11 12 15 12 7 6 5 5 5 5 6 6 6 5 4 5 5 4 2 2 2 2 3 3 2 3 3 4 5 7 11 14
7 12 14 15 13 10 12 14 11 7 6 6 6 5 5 6 6 5 6 5 4 4 5 4 3 2 2 2 3 3 3 2 3 4 5 6 7 7
8 10 13 12 10 9 10 8 6 6 7 6 6 5 5 5 5 5 4 5 4 3 4 4 5 5 4 3 3 3 3 3 3 4 4 4 5 7
8 5 5 7 7 7 7 7 6 6 6 6 6 6 5 5 5 4 4 4 4 5 5 4 3 1 5 7 4 5 5 4 4 4 1 1 1 3
6 5 6 6 7 7 7 6 5 5 5 5 5 6 6 6 6 5 4 5 5 6 6 6 6 4 2 3 11 7 6 5 5 6 4 4 5 4
4 5 5 6 7 7 7 6 5 6 5 5 4 4 4 5 5 6 6 6 6 6 7 7 7 7 7 7 10 15 8 6 7 8 9 8 6 6
4 5 6 6 6 7 7 6 7 7 6 5 4 3 3 3 4 5 6 8 7 7 7 7 7 7 6 5 5 10 18 10 8 9 9 8 9 12
5 5 5 6 6 7 7 7 7 7 7 6 5 5 3 3 3 4 5 8 7 7 7 7 7 9 5 4 6 9 12 19 18 10 6 6 9 10
5 5 6 6 6 6 7 7 7 7 8 6 6 6 4 2 3 5 5 6 6 6 7 6 8 8 8 9 10 11 11 12 16 25 26 18 7 7
5 6 6 6 6 6 7 8 8 7 6 6 6 6 6 4 4 5 6 7 6 7 7 7 7 8 9 10 10 10 14 13 11 13 15 20 23 21
Wind_Direction
49 38 12 330 309 279 257 248 277 295 296 282 274 280 285 292 287 291 289 292 294 291 287 283 280 278 276 273 271 270 269 268 263 257 253 252 254 256
38 21 352 322 314 305 289 272 257 274 288 277 273 283 289 292 293 295 294 294 293 291 286 282 280 278 275 272 268 264 261 259 256 252 248 247 247 248
15 354 327 314 305 301 292 281 272 263 281 290 279 280 280 284 289 289 289 288 285 284 285 284 282 281 279 274 267 262 257 254 252 249 245 243 242 242
349 334 320 319 307 298 291 284 279 268 273 291 295 289 281 280 279 279 283 282 282 283 284 283 281 283 285 288 282 267 257 252 249 246 243 242 238 236
328 318 312 310 304 301 296 289 282 280 272 283 293 293 288 285 284 280 279 278 279 280 280 280 280 281 283 283 289 285 264 252 246 243 243 240 233 231
318 310 307 303 296 297 297 293 292 289 286 285 291 297 295 292 285 286 287 277 277 281 280 278 275 275 274 271 270 270 266 260 251 245 239 231 227 230
322 319 314 312 314 313 309 305 301 295 294 294 296 296 294 295 290 285 286 287 281 271 271 270 269 267 268 265 263 260 253 248 245 241 236 230 229 228
324 323 318 315 318 318 314 311 310 307 305 298 293 291 293 292 289 286 287 287 285 258 250 267 260 262 261 253 253 254 248 244 243 238 232 228 227 225
319 318 317 314 317 311 313 314 310 303 298 294 291 290 291 292 289 286 279 277 276 271 262 270 264 262 259 255 253 249 246 243 240 235 230 227 223 218
318 311 307 307 310 318 320 312 307 302 297 296 288 290 294 295 289 285 286 284 276 274 264 272 267 263 267 254 251 249 247 243 237 230 228 225 218 211
319 315 312 312 314 321 322 312 308 307 310 305 300 299 300 303 306 301 302 306 306 300 285 272 290 290 285 281 269 255 245 233 220 212 213 215 209 202
321 320 320 319 320 323 321 312 312 317 316 314 312 314 317 319 318 314 314 313 312 300 330 320 306 320 313 310 288 261 235 223 215 213 212 208 196 191
322 324 320 319 320 319 318 311 312 314 307 305 308 314 324 327 326 319 307 302 305 290 309 312 298 303 298 302 288 258 231 224 217 223 222 217 206 197
323 320 315 316 319 319 320 317 319 319 317 318 320 325 331 334 331 324 319 313 308 311 319 312 292 311 307 291 294 295 264 234 227 233 227 218 215 209
324 321 323 323 326 326 325 327 331 335 337 342 345 342 333 331 332 330 330 327 321 341 359 359 347 325 308 300 300 298 297 278 236 244 237 221 209 196
332 323 322 324 331 329 330 336 341 346 350 350 348 342 340 344 348 344 339 342 342 341 356 11 21 23 4 327 317 317 304 298 291 273 250 226 204 194
322 321 334 340 343 339 337 337 340 351 356 356 356 356 355 356 356 349 350 349 359 359 359 352 331 349 54 20 349 344 341 337 336 331 339 64 117 162
338 338 339 339 337 333 334 336 336 343 345 348 357 2 5 6 6 3 4 9 14 15 17 9 4 7 350 58 24 0 1 3 7 20 36 56 60 73
350 340 336 334 333 332 334 337 335 333 332 336 344 353 2 11 15 17 18 21 22 24 25 20 17 19 30 28 17 15 16 19 31 42 44 47 51 58
345 338 335 333 331 333 336 337 334 335 337 335 332 332 340 3 23 29 31 30 28 27 28 25 20 15 20 19 14 22 30 32 33 43 48 56 64 70
338 337 334 332 332 334 335 336 335 334 337 337 336 331 327 338 17 35 43 38 36 32 31 26 11 7 16 35 50 42 40 44 50 43 25 48 62 66
336 335 332 331 331 331 333 336 336 338 342 342 341 343 339 346 25 43 49 50 44 39 39 33 26 31 40 52 52 45 42 43 48 51 49 48 57 63
334 331 330 331 331 331 333 334 335 335 338 341 344 351 5 25 44 58 60 61 58 54 49 46 45 47 49 50 51 48 46 46 47 53 53 51 64 71